When you browse on this site, cookies collect data to enhance your experience and personalize the content and advertising you see.
Visit our Privacy Policy to learn more. By continuing to use the site, you agree to this use of cookies and data.
  • In Österreich
  • Länderverzeichnis
  • Für 7 Tage
  • Wassertemperatur
  • Satellitenkarten
  • Wetterkarte
  • News
  • Widgets
  • user-avatar
    Anmelden

    Stündliche Wetter Bogdanow

    Heute, 17 Februar, Sonntag

    Zeit Temperatur Niederschläge Wind Luftdruck Luftfeuchtigkeit
    00:00 +3°C° 0 mm 3 m/S 757 mmHg 70%
    01:00 +3°C° 0 mm 3 m/S 757 mmHg 70%
    02:00 +2°C° 0 mm 3 m/S 757 mmHg 73%
    03:00 +2°C° 0 mm 3 m/S 757 mmHg 76%
    04:00 +2°C° 0 mm 3 m/S 757 mmHg 79%
    05:00 +1°C° 0 mm 3 m/S 757 mmHg 81%
    06:00 +1°C° 0 mm 3 m/S 757 mmHg 84%
    07:00 +1°C° 0 mm 3 m/S 757 mmHg 86%
    08:00 +2°C° 0 mm 3 m/S 757 mmHg 82%
    09:00 +3°C° 0 mm 3 m/S 757 mmHg 78%
    10:00 +5°C° 0 mm 4 m/S 757 mmHg 75%
    11:00 +7°C° 0 mm 3 m/S 757 mmHg 71%
    12:00 +8°C° 0 mm 3 m/S 757 mmHg 67%
    13:00 +9°C° 0 mm 3 m/S 757 mmHg 63%
    14:00 +9°C° 0 mm 3 m/S 757 mmHg 65%
    15:00 +9°C° 0 mm 2 m/S 757 mmHg 66%
    16:00 +9°C° 0 mm 2 m/S 756 mmHg 68%
    17:00 +8°C° 0 mm 2 m/S 757 mmHg 71%
    18:00 +8°C° 0 mm 1 m/S 757 mmHg 75%
    19:00 +7°C° 0 mm 1 m/S 757 mmHg 78%
    20:00 +7°C° 0 mm 1 m/S 757 mmHg 79%
    21:00 +6°C° 0 mm 1 m/S 757 mmHg 79%
    22:00 +5°C° 0 mm 0 m/S 757 mmHg 80%
    23:00 +6°C° 0 mm 1 m/S 757 mmHg 80%

    Morgen, 18 Februar, Montag

    Zeit Temperatur Niederschläge Wind Luftdruck Luftfeuchtigkeit
    00:00 +5°C° 0 mm 1 m/S 757 mmHg 80%
    01:00 +5°C° 0 mm 1 m/S 757 mmHg 80%
    02:00 +5°C° 0 mm 1 m/S 756 mmHg 80%
    03:00 +4°C° 0 mm 1 m/S 756 mmHg 80%
    04:00 +4°C° 0 mm 1 m/S 756 mmHg 80%
    05:00 +3°C° 0 mm 2 m/S 756 mmHg 80%
    06:00 +2°C° 0 mm 2 m/S 756 mmHg 80%
    07:00 +2°C° 0 mm 2 m/S 756 mmHg 80%
    08:00 +3°C° 0 mm 2 m/S 756 mmHg 76%
    09:00 +4°C° 0 mm 2 m/S 756 mmHg 71%
    10:00 +6°C° 0 mm 2 m/S 756 mmHg 66%
    11:00 +7°C° 0 mm 2 m/S 755 mmHg 60%
    12:00 +8°C° 0 mm 2 m/S 755 mmHg 55%
    13:00 +9°C° 0 mm 2 m/S 755 mmHg 49%
    14:00 +9°C° 0 mm 2 m/S 754 mmHg 50%
    15:00 +9°C° 0 mm 2 m/S 754 mmHg 52%
    16:00 +10°C° 0 mm 1 m/S 754 mmHg 54%
    17:00 +8°C° 0 mm 2 m/S 754 mmHg 57%
    18:00 +7°C° 0 mm 2 m/S 754 mmHg 60%
    19:00 +6°C° 0 mm 2 m/S 754 mmHg 63%
    20:00 +6°C° 0 mm 2 m/S 754 mmHg 65%
    21:00 +5°C° 0 mm 2 m/S 754 mmHg 67%
    22:00 +5°C° 0 mm 2 m/S 753 mmHg 69%
    23:00 +3°C° 0 mm 3 m/S 753 mmHg 72%

    übermorgen, 19 Februar, Dienstag

    Zeit Temperatur Niederschläge Wind Luftdruck Luftfeuchtigkeit
    00:00 +3°C° 0 mm 3 m/S 753 mmHg 75%
    01:00 +2°C° 0 mm 3 m/S 753 mmHg 79%
    02:00 +2°C° 0 mm 3 m/S 753 mmHg 80%
    03:00 +2°C° 0 mm 3 m/S 753 mmHg 81%
    04:00 +1°C° 0 mm 3 m/S 752 mmHg 83%
    05:00 +1°C° 0 mm 3 m/S 752 mmHg 83%
    06:00 +1°C° 0 mm 3 m/S 752 mmHg 83%
    07:00 +1°C° 0 mm 3 m/S 752 mmHg 83%
    08:00 +1°C° 0 mm 4 m/S 752 mmHg 77%
    09:00 +4°C° 0 mm 4 m/S 752 mmHg 71%
    10:00 +5°C° 0 mm 4 m/S 752 mmHg 64%
    11:00 +6°C° 0 mm 4 m/S 751 mmHg 60%
    12:00 +8°C° 0 mm 4 m/S 751 mmHg 56%
    13:00 +10°C° 0 mm 4 m/S 751 mmHg 52%
    14:00 +10°C° 0 mm 4 m/S 751 mmHg 53%
    15:00 +10°C° 0 mm 4 m/S 750 mmHg 54%
    16:00 +10°C° 0 mm 3 m/S 750 mmHg 55%
    17:00 +8°C° 0 mm 4 m/S 750 mmHg 59%
    18:00 +7°C° 0 mm 4 m/S 751 mmHg 64%
    19:00 +6°C° 0 mm 4 m/S 751 mmHg 68%
    20:00 +6°C° 0.1 mm 4 m/S 751 mmHg 74%
    21:00 +6°C° 0.1 mm 5 m/S 752 mmHg 80%
    22:00 +6°C° 0.1 mm 5 m/S 752 mmHg 86%
    23:00 +5°C° 0 mm 5 m/S 752 mmHg 88%

    20 Februar, Mittwoch

    Zeit Temperatur Niederschläge Wind Luftdruck Luftfeuchtigkeit
    00:00 +4°C° 0 mm 4 m/S 753 mmHg 90%
    01:00 +4°C° 0 mm 4 m/S 753 mmHg 92%
    02:00 +3°C° 0 mm 4 m/S 753 mmHg 92%
    03:00 +3°C° 0 mm 4 m/S 753 mmHg 92%
    04:00 +1°C° 0 mm 4 m/S 753 mmHg 93%
    05:00 +1°C° 0 mm 4 m/S 753 mmHg 93%
    06:00 +1°C° 0 mm 4 m/S 754 mmHg 94%
    07:00 +1°C° 0 mm 5 m/S 754 mmHg 94%
    08:00 +2°C° 0 mm 5 m/S 754 mmHg 90%
    09:00 +3°C° 0 mm 6 m/S 754 mmHg 85%
    10:00 +4°C° 0 mm 6 m/S 755 mmHg 80%
    11:00 +4°C° 0 mm 6 m/S 755 mmHg 75%
    12:00 +5°C° 0 mm 7 m/S 755 mmHg 70%
    13:00 +6°C° 0 mm 7 m/S 755 mmHg 64%
    14:00 +7°C° 0 mm 6 m/S 755 mmHg 64%
    15:00 +7°C° 0 mm 6 m/S 755 mmHg 63%
    16:00 +7°C° 0 mm 5 m/S 754 mmHg 62%
    17:00 +6°C° 0 mm 5 m/S 755 mmHg 67%
    18:00 +6°C° 0 mm 4 m/S 755 mmHg 71%
    19:00 +5°C° 0 mm 4 m/S 755 mmHg 75%
    20:00 +5°C° 0 mm 4 m/S 755 mmHg 77%
    21:00 +5°C° 0 mm 4 m/S 755 mmHg 79%
    22:00 +4°C° 0 mm 4 m/S 756 mmHg 81%
    23:00 +4°C° 0 mm 4 m/S 756 mmHg 83%

    21 Februar, Donnerstag

    Zeit Temperatur Niederschläge Wind Luftdruck Luftfeuchtigkeit
    00:00 +4°C° 0 mm 4 m/S 756 mmHg 85%
    01:00 +3°C° 0 mm 4 m/S 756 mmHg 86%
    02:00 +3°C° 0 mm 4 m/S 755 mmHg 86%
    03:00 +3°C° 0 mm 4 m/S 755 mmHg 86%
    04:00 +3°C° 0 mm 4 m/S 755 mmHg 86%
    05:00 +3°C° 0.2 mm 4 m/S 755 mmHg 86%
    06:00 +3°C° 0.2 mm 4 m/S 755 mmHg 86%
    07:00 +3°C° 0.2 mm 4 m/S 755 mmHg 86%
    08:00 +4°C° 0 mm 4 m/S 755 mmHg 83%
    09:00 +3°C° 0 mm 5 m/S 755 mmHg 80%
    10:00 +5°C° 0 mm 5 m/S 755 mmHg 77%
    11:00 +5°C° 0.1 mm 6 m/S 754 mmHg 75%
    12:00 +5°C° 0.1 mm 6 m/S 754 mmHg 74%
    13:00 +7°C° 0.1 mm 6 m/S 754 mmHg 73%
    14:00 +7°C° 0.8 mm 6 m/S 754 mmHg 77%
    15:00 +5°C° 0.8 mm 6 m/S 753 mmHg 81%
    16:00 +6°C° 0.8 mm 5 m/S 753 mmHg 86%
    17:00 +6°C° 0.3 mm 5 m/S 754 mmHg 87%
    18:00 +6°C° 0.3 mm 5 m/S 754 mmHg 88%
    19:00 +6°C° 0.3 mm 5 m/S 754 mmHg 90%
    20:00 +5°C° 0 mm 5 m/S 754 mmHg 91%
    21:00 +5°C° 0 mm 5 m/S 754 mmHg 92%
    22:00 +5°C° 0 mm 5 m/S 754 mmHg 93%
    23:00 +5°C° 0.1 mm 5 m/S 754 mmHg 92%

    22 Februar, Freitag

    Zeit Temperatur Niederschläge Wind Luftdruck Luftfeuchtigkeit
    00:00 +5°C° 0.1 mm 5 m/S 754 mmHg 91%
    01:00 +5°C° 0.1 mm 5 m/S 754 mmHg 90%
    02:00 +4°C° 0.7 mm 6 m/S 754 mmHg 90%
    03:00 +4°C° 0.7 mm 6 m/S 753 mmHg 91%
    04:00 +4°C° 0.7 mm 6 m/S 753 mmHg 91%
    05:00 +4°C° 1.2 mm 6 m/S 753 mmHg 90%
    06:00 +4°C° 1.2 mm 7 m/S 753 mmHg 90%
    07:00 +4°C° 1.2 mm 7 m/S 754 mmHg 89%
    08:00 +3°C° 0.1 mm 7 m/S 755 mmHg 86%
    09:00 +2°C° 0.1 mm 8 m/S 756 mmHg 82%
    10:00 +1°C° 0.1 mm 8 m/S 757 mmHg 79%
    11:00 +1°C° 0 mm 8 m/S 758 mmHg 76%
    12:00 0°C° 0 mm 7 m/S 759 mmHg 74%
    13:00 0°C° 0 mm 7 m/S 760 mmHg 71%
    14:00 -1°C° 0 mm 7 m/S 761 mmHg 68%
    15:00 -1°C° 0 mm 7 m/S 762 mmHg 65%
    16:00 -1°C° 0 mm 7 m/S 763 mmHg 62%
    17:00 -2°C° 0 mm 6 m/S 764 mmHg 62%
    18:00 -3°C° 0 mm 6 m/S 765 mmHg 62%
    19:00 -4°C° 0 mm 6 m/S 766 mmHg 62%
    20:00 -4°C° 0 mm 6 m/S 767 mmHg 58%
    21:00 -5°C° 0 mm 5 m/S 768 mmHg 54%
    22:00 -5°C° 0 mm 5 m/S 768 mmHg 50%
    23:00 -5°C° 0 mm 5 m/S 769 mmHg 47%
    Mehr zeigen